Вернуться в каталог

ONEWEB-0217

АктивенСвязьPO
NORAD 48245·PAYLOAD·🇬🇧 United Kingdom

Запущен Apr 25, 2021 с Vostochny Cosmodrome

Loading…

Ближайшие Пролёты (ближайшие 24 часа)

TLE

СвежийSource: CelesTrak SupGP

Эпоха: Sep 14, 2026, 16:13 UTC

1 48245C 21031AM  26257.67621944 -.00001237  00000+0 -33393-2 0  2575
2 48245  87.8898 271.8573 0001722  84.0235  15.5495 13.14503452    18

Отслеживайте ONEWEB-0217 в реальном времени с AllMySat

Download on the App Store